Henderson, NV

4:05 AM PDT on October 20, 2017 (GMT -0700)
Henderson

Weather History for KHND - October, 2013

Change the Weather History Date:

Friday, October 18, 2013

  Actual Average (KLAS) Record (KLAS)
Temperature  
Mean Temperature 62 °F -  
Max Temperature 77 °F 79 °F 95 °F (1958)
Min Temperature 47 °F 52 °F 35 °F (1938)
Degree Days  
Heating Degree Days 3    
Growing Degree Days 12 (Base 50)    
Moisture  
Dew Point 22 °F    
Average Humidity 23    
Maximum Humidity 39    
Minimum Humidity 13    
Precipitation  
Precipitation 0.00 in - - ()
Sea Level Pressure  
Sea Level Pressure 30.08 in    
Wind  
Wind Speed 5 mph (SE)    
Max Wind Speed 13 mph    
Max Gust Speed -    
Visibility 10 miles    
Events Rain    
Averages and records for this station are not official NWS values.
T = Trace of Precipitation, MM = Missing Value Source: NWS Daily Summary

Daily Weather History Graph

Daily Weather History Graph

Search for Another Location

Airport or City:

Trip Planner

Search our weather history database for the weather conditions in past years. The results will help you decide how hot, cold, wet, or windy it might be!

Date:

Astronomy

Oct. 18, 2013 Rise Set
Actual Time 6:50 AM PDT 6:00 PM PDT
Civil Twilight 6:24 AM PDT 6:26 PM PDT
Nautical Twilight 5:54 AM PDT 6:56 PM PDT
Astronomical Twilight 5:24 AM PDT 7:25 PM PDT
Moon 5:53 PM PDT (10/18) 6:30 AM PDT (10/18)
Length of Visible Light 12h 02m
Length of Day
11h 10m
Full, 100% of the Moon is Illuminated
Oct 18
Full
Oct 18
Full
Oct 26
Last Quarter
Nov 3
New
Nov 9
First Quarter

Hourly Weather History & Observations

Time (PDT) Temp. Dew Point Humidity Pressure Visibility Wind Dir Wind Speed Gust Speed Precip Events Conditions
12:56 AM 54.0 °F 21.0 °F 28% 30.01 in 10.0 mi Calm Calm - N/A   Clear
1:56 AM 50.9 °F 22.1 °F 32% 30.02 in 10.0 mi South 8.1 mph - N/A   Clear
2:56 AM 50.9 °F 22.1 °F 32% 30.04 in 10.0 mi SSE 6.9 mph - N/A   Clear
3:56 AM 50.9 °F 22.1 °F 32% 30.04 in 10.0 mi SSE 8.1 mph - N/A   Clear
4:56 AM 48.9 °F 19.0 °F 31% 30.05 in 10.0 mi South 6.9 mph - N/A   Clear
5:56 AM 48.9 °F 23.0 °F 36% 30.07 in 10.0 mi SSE 5.8 mph - N/A   Clear
6:56 AM 47.8 °F 24.1 °F 39% 30.10 in 10.0 mi SSE 8.1 mph - N/A   Clear
7:56 AM 52.0 °F 20.1 °F 29% 30.13 in 10.0 mi South 6.9 mph - N/A   Clear
8:56 AM 63.9 °F 23.0 °F 21% 30.14 in 10.0 mi Calm Calm - N/A   Clear
9:56 AM 65.8 °F 21.0 °F 18% 30.15 in 10.0 mi NNE 8.1 mph - N/A   Clear
10:56 AM 68.9 °F 23.0 °F 18% 30.15 in 10.0 mi NE 4.6 mph - N/A   Clear
11:56 AM 72.9 °F 24.1 °F 16% 30.12 in 10.0 mi ENE 8.1 mph - N/A   Clear
12:56 PM 74.8 °F 24.1 °F 15% 30.10 in 10.0 mi NNE 5.8 mph - N/A   Clear
1:56 PM 74.8 °F 23.0 °F 14% 30.08 in 10.0 mi North 12.7 mph - N/A   Clear
2:56 PM 77.0 °F 23.0 °F 13% 30.06 in 10.0 mi North 6.9 mph - N/A   Clear
3:56 PM 77.0 °F 22.1 °F 13% 30.05 in 10.0 mi North 6.9 mph - N/A   Clear
4:56 PM 77.9 °F 22.1 °F 13% 30.05 in 10.0 mi NE 4.6 mph - N/A   Clear
5:56 PM 73.9 °F 23.0 °F 15% 30.05 in 10.0 mi ENE 4.6 mph - N/A   Clear
6:56 PM 68.0 °F 23.0 °F 18% 30.07 in 10.0 mi Calm Calm - N/A   Clear
7:56 PM 63.9 °F 22.1 °F 20% 30.08 in 10.0 mi South 5.8 mph - 0.00 in Rain Heavy Rain
8:56 PM 59.9 °F 24.1 °F 25% 30.08 in 10.0 mi SSE 8.1 mph - 0.00 in   Clear
9:56 PM 57.9 °F 20.1 °F 23% 30.09 in 10.0 mi SSW 8.1 mph - N/A   Clear
10:56 PM 55.9 °F 22.1 °F 27% 30.09 in 10.0 mi SSW 8.1 mph - N/A   Clear
11:56 PM 54.9 °F 23.0 °F 29% 30.09 in 10.0 mi South 6.9 mph - N/A   Clear